KAL35 RKSI-KATL

Flight info

Callsign KAL35
Flight time N/A
Altitude 33000
Route EGOBA2C EGOBA Y697 LANAT Y51 SAMON Y142 GTC Y512 ADNAP R591 ADGOR DCT AGEDI DCT AKISU DCT ASPIN DCT AAMYY DCT SYA DCT AMOND DCT ALDOZ DCT ALUFF DCT SPY DCT AKN DCT MDO DCT YAK DCT 59N130W DCT YXJ DCT YEX DCT 52N110W 50N104W DCT MOT DCT DSM Q19 STL DCT TINGS DCT HITMN DCT NEWBB DCT IHAVE DCT MTHEW CHPPR1
Aircraft A388/J-SADE2E3FGHIJ3J4J5M1RWXY/LB1D1

Departure

Time N/A
Airport Incheon International Airport (RKSI)

Arrival

Time 2026-05-05 15:11
Airport Hartsfield Jackson Atlanta International Airport (KATL)
Time Latitude Longitude Altitude Speed Heading
2026-05-05 14:38 35.99947 -86.58804 32992 ft 550 kts 156°
2026-05-05 14:38 35.96618 -86.56460 33001 ft 550 kts 156°
2026-05-05 14:38 35.90001 -86.51806 33001 ft 550 kts 156°
2026-05-05 14:39 35.83328 -86.47126 32997 ft 550 kts 156°
2026-05-05 14:39 35.76661 -86.42459 32999 ft 550 kts 156°
2026-05-05 14:40 35.70007 -86.37791 32997 ft 550 kts 156°
2026-05-05 14:40 35.63393 -86.33085 32983 ft 551 kts 156°
2026-05-05 14:41 35.56759 -86.28376 32991 ft 552 kts 156°
2026-05-05 14:41 35.50082 -86.23655 33011 ft 552 kts 156°
2026-05-05 14:42 35.43453 -86.18911 32968 ft 555 kts 152°
2026-05-05 14:42 35.37258 -86.13099 32995 ft 560 kts 146°
2026-05-05 14:43 35.31171 -86.07172 33016 ft 561 kts 146°
2026-05-05 14:43 35.25021 -86.01219 32765 ft 559 kts 146°
2026-05-05 14:44 35.22003 -85.98322 32502 ft 554 kts 146°
2026-05-05 14:44 35.18980 -85.95424 32256 ft 550 kts 146°
2026-05-05 14:44 35.15967 -85.92543 31964 ft 549 kts 146°
2026-05-05 14:44 35.12955 -85.89673 31722 ft 546 kts 146°
2026-05-05 14:45 35.09954 -85.86814 31479 ft 543 kts 146°
2026-05-05 14:45 35.07021 -85.84017 31242 ft 540 kts 146°
2026-05-05 14:45 35.04064 -85.81200 30992 ft 536 kts 146°
2026-05-05 14:45 35.01124 -85.78401 30761 ft 533 kts 146°
2026-05-05 14:46 34.98194 -85.75614 30516 ft 530 kts 146°
2026-05-05 14:46 34.95326 -85.72888 30294 ft 527 kts 146°
2026-05-05 14:46 34.92435 -85.70142 30050 ft 524 kts 146°
2026-05-05 14:46 34.89548 -85.67404 29743 ft 522 kts 146°
2026-05-05 14:47 34.86705 -85.64720 29464 ft 519 kts 146°
2026-05-05 14:47 34.83843 -85.62013 29188 ft 516 kts 146°
2026-05-05 14:47 34.81015 -85.59333 28912 ft 513 kts 146°
2026-05-05 14:47 34.78240 -85.56707 28675 ft 510 kts 146°
2026-05-05 14:48 34.75427 -85.54048 28394 ft 507 kts 146°
2026-05-05 14:48 34.72648 -85.51421 28135 ft 504 kts 146°
2026-05-05 14:48 34.69883 -85.48808 27875 ft 501 kts 146°
2026-05-05 14:48 34.67165 -85.46241 27624 ft 498 kts 146°
2026-05-05 14:49 34.64431 -85.43664 27343 ft 495 kts 146°
2026-05-05 14:49 34.61709 -85.41102 26914 ft 492 kts 146°
2026-05-05 14:49 34.59019 -85.38575 26468 ft 483 kts 146°
2026-05-05 14:49 34.56372 -85.36085 25886 ft 478 kts 146°
2026-05-05 14:50 34.53781 -85.33648 25320 ft 472 kts 146°
2026-05-05 14:50 34.51203 -85.31226 24799 ft 465 kts 146°
2026-05-05 14:50 34.48653 -85.28833 24257 ft 459 kts 146°
2026-05-05 14:50 34.46136 -85.26473 23737 ft 453 kts 146°
2026-05-05 14:51 34.43681 -85.24175 23137 ft 447 kts 146°
2026-05-05 14:51 34.41233 -85.21886 22315 ft 440 kts 146°
2026-05-05 14:51 34.38824 -85.19634 21554 ft 433 kts 146°
2026-05-05 14:51 34.36444 -85.17411 20713 ft 428 kts 146°
2026-05-05 14:52 34.34127 -85.15249 19991 ft 422 kts 145°
2026-05-05 14:52 34.31812 -85.13089 19267 ft 416 kts 145°
2026-05-05 14:52 34.29534 -85.10966 18558 ft 410 kts 145°
2026-05-05 14:52 34.27287 -85.08873 17774 ft 404 kts 145°
2026-05-05 14:53 34.25102 -85.06839 17012 ft 398 kts 145°
2026-05-05 14:53 34.22917 -85.04806 16231 ft 392 kts 145°
2026-05-05 14:53 34.20775 -85.02816 15555 ft 385 kts 144°
2026-05-05 14:53 34.18660 -85.00852 14794 ft 380 kts 144°
2026-05-05 14:54 34.16572 -84.98912 14056 ft 375 kts 144°
2026-05-05 14:54 34.14508 -84.96996 13355 ft 369 kts 144°
2026-05-05 14:54 34.12516 -84.95135 12912 ft 364 kts 144°
2026-05-05 14:54 34.10524 -84.93244 12845 ft 365 kts 143°
2026-05-05 14:55 34.08517 -84.91337 12848 ft 368 kts 143°
2026-05-05 14:55 34.06498 -84.89421 12847 ft 369 kts 143°
2026-05-05 14:55 34.04479 -84.87507 12883 ft 368 kts 143°
2026-05-05 14:55 34.02512 -84.85644 12632 ft 356 kts 143°
2026-05-05 14:56 34.00593 -84.83829 12354 ft 344 kts 144°
2026-05-05 14:56 33.99364 -84.82666 12167 ft 336 kts 144°
2026-05-05 14:56 33.97554 -84.80958 11883 ft 327 kts 144°
2026-05-05 14:56 33.95215 -84.78753 11519 ft 315 kts 144°
2026-05-05 14:57 33.94055 -84.77660 11349 ft 310 kts 144°
2026-05-05 14:57 33.92389 -84.76091 11083 ft 304 kts 144°
2026-05-05 14:57 33.90731 -84.74531 10829 ft 298 kts 144°
2026-05-05 14:57 33.89106 -84.73002 10562 ft 295 kts 144°
2026-05-05 14:58 33.87562 -84.71549 10314 ft 293 kts 144°
2026-05-05 14:58 33.85964 -84.70044 10030 ft 290 kts 144°
2026-05-05 14:58 33.84378 -84.68553 9775 ft 288 kts 144°
2026-05-05 14:58 33.82792 -84.67066 9467 ft 289 kts 144°
2026-05-05 14:59 33.81211 -84.65582 9180 ft 287 kts 144°
2026-05-05 14:59 33.79661 -84.64126 8915 ft 285 kts 144°
2026-05-05 14:59 33.78109 -84.62671 8635 ft 283 kts 145°
2026-05-05 14:59 33.76558 -84.61217 8360 ft 281 kts 145°
2026-05-05 15:00 33.75023 -84.59777 8082 ft 276 kts 145°
2026-05-05 15:00 33.74093 -84.58746 7924 ft 275 kts 131°
2026-05-05 15:00 33.73168 -84.55951 7602 ft 277 kts 97°
2026-05-05 15:00 33.73156 -84.53627 7355 ft 272 kts 91°
2026-05-05 15:01 33.73212 -84.51396 7120 ft 268 kts 91°
2026-05-05 15:01 33.73259 -84.49170 6877 ft 264 kts 92°
2026-05-05 15:01 33.73285 -84.46976 6644 ft 260 kts 93°
2026-05-05 15:01 33.73297 -84.44828 6397 ft 256 kts 94°
2026-05-05 15:02 33.73301 -84.42683 6142 ft 254 kts 94°
2026-05-05 15:02 33.73301 -84.40568 5888 ft 252 kts 94°
2026-05-05 15:02 33.73301 -84.38492 5638 ft 250 kts 94°
2026-05-05 15:02 33.73299 -84.36387 5361 ft 248 kts 94°
2026-05-05 15:03 33.73298 -84.34346 5114 ft 245 kts 95°
2026-05-05 15:03 33.73297 -84.32300 4866 ft 243 kts 95°
2026-05-05 15:03 33.73297 -84.30275 4611 ft 242 kts 95°
2026-05-05 15:03 33.73296 -84.28255 4357 ft 241 kts 94°
2026-05-05 15:04 33.73298 -84.26274 4104 ft 239 kts 93°
2026-05-05 15:04 33.73303 -84.24294 3993 ft 234 kts 93°
2026-05-05 15:04 33.73307 -84.22360 3989 ft 230 kts 94°
2026-05-05 15:04 33.73302 -84.20416 4004 ft 234 kts 95°
2026-05-05 15:05 33.71962 -84.17200 3934 ft 217 kts 153°
2026-05-05 15:05 33.70542 -84.16729 3818 ft 214 kts 178°
2026-05-05 15:05 33.69049 -84.16637 3706 ft 215 kts 179°
2026-05-05 15:06 33.67569 -84.16731 3555 ft 212 kts 199°
2026-05-05 15:06 33.66378 -84.17677 3503 ft 205 kts 230°
2026-05-05 15:06 33.65592 -84.19079 3492 ft 200 kts 237°
2026-05-05 15:06 33.65072 -84.20603 3513 ft 203 kts 255°
2026-05-05 15:07 33.64934 -84.22304 3504 ft 207 kts 265°
2026-05-05 15:07 33.64961 -84.24021 3509 ft 201 kts 267°
2026-05-05 15:07 33.64952 -84.25614 3489 ft 184 kts 266°
2026-05-05 15:07 33.64956 -84.27150 3270 ft 179 kts 266°
2026-05-05 15:08 33.64958 -84.28547 3032 ft 159 kts 266°
2026-05-05 15:08 33.64956 -84.29861 2826 ft 154 kts 265°
2026-05-05 15:08 33.64956 -84.31148 2621 ft 150 kts 266°
2026-05-05 15:08 33.64952 -84.32377 2434 ft 143 kts 266°
2026-05-05 15:09 33.64960 -84.33531 2235 ft 137 kts 267°
2026-05-05 15:09 33.64953 -84.34681 2063 ft 139 kts 266°
2026-05-05 15:09 33.64962 -84.35832 1875 ft 137 kts 267°
2026-05-05 15:09 33.64948 -84.36985 1755 ft 141 kts 268°
2026-05-05 15:10 33.64958 -84.38159 1592 ft 139 kts 268°
2026-05-05 15:10 33.64960 -84.39317 1369 ft 137 kts 268°
2026-05-05 15:10 33.64956 -84.40451 1116 ft 133 kts 268°
2026-05-05 15:10 33.64951 -84.41507 1011 ft 118 kts 267°
2026-05-05 15:11 33.64954 -84.42310 1012 ft 78 kts 271°
2026-05-05 15:11 33.64961 -84.42854 1011 ft 54 kts 270°
2026-05-05 15:11 33.64925 -84.43197 1012 ft 31 kts 249°
2026-05-05 15:11 33.64861 -84.43307 1011 ft 12 kts 200°
2026-05-05 15:12 33.64797 -84.43278 1012 ft 10 kts 114°
2026-05-05 15:12 33.64789 -84.43151 1012 ft 19 kts 90°
2026-05-05 15:12 33.64790 -84.42975 1012 ft 23 kts 90°
2026-05-05 15:12 33.64789 -84.42771 1011 ft 26 kts 90°
2026-05-05 15:13 33.64788 -84.42547 1011 ft 28 kts 90°
2026-05-05 15:13 33.64789 -84.42373 1011 ft 18 kts 89°
2026-05-05 15:13 33.64785 -84.42275 1011 ft 11 kts 113°
2026-05-05 15:13 33.64715 -84.42236 1009 ft 14 kts 182°
2026-05-05 15:14 33.64587 -84.42237 1010 ft 20 kts 177°
2026-05-05 15:14 33.64448 -84.42233 1011 ft 21 kts 182°
2026-05-05 15:14 33.64304 -84.42236 1011 ft 19 kts 180°
2026-05-05 15:14 33.64185 -84.42238 1011 ft 18 kts 181°
2026-05-05 15:15 33.64067 -84.42239 1011 ft 15 kts 181°
2026-05-05 15:15 33.63959 -84.42241 1011 ft 17 kts 181°
2026-05-05 15:15 33.63835 -84.42242 1011 ft 19 kts 178°
2026-05-05 15:15 33.63742 -84.42238 1012 ft 11 kts 178°
2026-05-05 15:16 33.63674 -84.42228 1012 ft 8 kts 145°
2026-05-05 15:16 33.63655 -84.42164 1012 ft 12 kts 92°
2026-05-05 15:16 33.63654 -84.42031 1012 ft 19 kts 90°
2026-05-05 15:16 33.63655 -84.41881 1011 ft 17 kts 89°
2026-05-05 15:17 33.63660 -84.41782 1012 ft 8 kts 73°
2026-05-05 15:17 33.63707 -84.41743 1012 ft 10 kts 353°
2026-05-05 15:17 33.63796 -84.41751 1012 ft 16 kts 356°
2026-05-05 15:17 33.63871 -84.41765 1012 ft 11 kts 327°
2026-05-05 15:18 33.63911 -84.41828 1011 ft 9 kts 301°
2026-05-05 15:18 33.63928 -84.41858 1011 ft 2 kts 304°
2026-05-05 15:18 33.63933 -84.41868 1011 ft 0 kts 304°